Location: St Paul
(44.9440°N, 93.0930°W)
Time: 07:51:18
(UTC-06:00)

N. Korean satellite - Visible Passes

Search period start: 12 December 2017 00:00
Search period end: 22 December 2017 00:00
Orbit: 461 x 513 km, 97.2° (Epoch: 11 December)

Date Brightness Start Highest point End Pass type
(mag) Time Alt. Az. Time Alt. Az. Time Alt. Az.
12 Dec 6.8 17:45:37 10° SSE 17:49:11 48° ENE 17:52:49 10° N visible
12 Dec 10.0 19:21:15 10° WSW 19:22:59 13° W 19:24:44 10° WNW visible
13 Dec 7.7 06:44:23 10° NNE 06:48:01 49° E 06:51:35 10° S visible
13 Dec 7.6 17:22:38 10° SE 17:25:46 26° ENE 17:28:56 10° NNE visible
13 Dec 9.1 18:56:13 10° SSW 18:59:14 23° W 19:02:17 10° NW visible
14 Dec 9.1 06:21:13 10° NE 06:24:22 25° E 06:27:28 10° SSE visible
14 Dec 7.9 18:32:00 10° S 18:35:33 43° W 18:39:11 10° NNW visible
15 Dec 9.9 05:58:36 10° ENE 06:00:36 14° E 06:02:37 10° ESE visible
15 Dec 6.6 18:08:14 10° SSE 18:11:58 87° W 18:15:45 10° NNW visible
16 Dec 6.6 07:07:08 10° N 07:10:51 84° WNW 07:14:29 10° SSW visible
16 Dec 6.9 17:44:51 10° SSE 17:48:27 47° ENE 17:52:05 10° N visible
16 Dec 10.0 19:20:25 10° WSW 19:22:14 13° W 19:24:03 10° WNW visible
17 Dec 7.8 06:43:40 10° NNE 06:47:16 48° E 06:50:47 10° S visible
17 Dec 7.6 17:21:52 10° SE 17:25:01 26° ENE 17:28:11 10° NNE visible
17 Dec 9.1 18:55:25 10° SSW 18:58:28 24° W 19:01:34 10° NW visible
18 Dec 9.1 06:20:29 10° NE 06:23:35 25° E 06:26:37 10° SSE visible
18 Dec 7.8 18:31:13 10° S 18:34:47 44° W 18:38:25 10° NNW visible
19 Dec 9.9 05:57:54 10° ENE 05:59:49 14° E 06:01:43 10° ESE visible
19 Dec 6.6 18:07:26 10° SSE 18:11:11 88° WSW 18:14:59 10° NNW visible
20 Dec 6.6 07:06:22 10° N 07:10:04 85° WNW 07:13:40 10° SSW visible
20 Dec 6.9 17:44:04 10° SSE 17:47:40 47° ENE 17:51:18 10° N visible
20 Dec 10.0 19:19:34 10° WSW 19:21:26 13° W 19:23:19 10° WNW visible
21 Dec 7.8 06:42:53 10° NNE 06:46:27 47° E 06:49:56 10° S visible
21 Dec 7.7 17:21:05 10° SE 17:24:13 26° ENE 17:27:23 10° NNE visible
21 Dec 9.1 18:54:35 10° SSW 18:57:40 24° W 19:00:47 10° NW visible
